Time,TemperatureF,DewpointF,PressureIn,WindDirection,WindDirectionDegrees,WindSpeedMPH,WindSpeedGustMPH,Humidity,HourlyPrecipIn,Conditions,Clouds,dailyrainin,SoftwareType,DateUTC
2013-08-11 00:01:00,74.0,73.0,30.10,SSW,204,0.0,1.0,97,0.00,,,0.34,,2013-08-11 04:01:00,
2013-08-11 00:12:00,74.0,73.0,30.10,SSW,204,0.0,1.0,97,0.00,,,0.34,,2013-08-11 04:12:00,
2013-08-11 00:22:00,74.0,73.0,30.10,SSW,204,0.0,0.0,97,0.00,,,0.34,,2013-08-11 04:22:00,
2013-08-11 00:32:00,74.0,73.0,30.10,SSW,204,0.0,0.0,97,0.00,,,0.34,,2013-08-11 04:32:00,
2013-08-11 00:43:00,74.0,73.0,30.10,SSW,204,0.0,0.0,97,0.00,,,0.34,,2013-08-11 04:43:00,
2013-08-11 00:53:00,74.0,73.0,30.09,SSW,203,0.0,0.0,97,0.00,,,0.34,,2013-08-11 04:53:00,
2013-08-11 01:02:00,73.0,72.0,30.09,SSW,203,0.0,0.0,97,0.00,,,0.34,,2013-08-11 05:02:00,
2013-08-11 01:20:00,73.0,72.0,30.09,SSW,203,0.0,0.0,97,0.00,,,0.34,,2013-08-11 05:20:00,
2013-08-11 01:48:00,73.0,72.0,30.08,SSW,213,0.0,0.0,98,0.00,,,0.34,,2013-08-11 05:48:00,
2013-08-11 02:27:00,73.0,72.0,30.08,NNW,344,2.0,4.0,98,0.00,,,0.34,,2013-08-11 06:27:00,
2013-08-11 02:37:00,73.0,72.0,30.08,NNW,328,1.0,2.0,98,0.00,,,0.34,,2013-08-11 06:37:00,
2013-08-11 02:48:00,73.0,72.0,30.08,NNW,328,1.0,2.0,98,0.00,,,0.34,,2013-08-11 06:48:00,
2013-08-11 02:57:00,73.0,72.0,30.08,NW,326,0.0,0.0,98,0.00,,,0.34,,2013-08-11 06:57:00,
2013-08-11 03:16:00,73.0,72.0,30.09,SSW,212,0.0,1.0,98,0.00,,,0.34,,2013-08-11 07:16:00,
2013-08-11 03:36:00,73.0,72.0,30.08,SW,217,0.0,1.0,98,0.00,,,0.34,,2013-08-11 07:36:00,
2013-08-11 03:46:00,73.0,72.0,30.08,SW,217,0.0,1.0,98,0.00,,,0.34,,2013-08-11 07:46:00,
2013-08-11 03:56:00,72.0,71.0,30.09,SW,217,0.0,0.0,98,0.00,,,0.34,,2013-08-11 07:56:00,
2013-08-11 04:19:00,72.0,71.0,30.09,SW,217,0.0,0.0,98,0.00,,,0.34,,2013-08-11 08:19:00,
2013-08-11 04:27:00,72.0,71.0,30.09,SW,217,0.0,0.0,98,0.00,,,0.34,,2013-08-11 08:27:00,
2013-08-11 04:48:00,72.0,71.0,30.09,SW,217,1.0,1.0,98,0.00,,,0.34,,2013-08-11 08:48:00,
2013-08-11 04:59:00,72.0,71.0,30.10,SW,217,0.0,1.0,98,0.00,,,0.34,,2013-08-11 08:59:00,
2013-08-11 05:09:00,72.0,71.0,30.10,SW,217,0.0,1.0,98,0.00,,,0.34,,2013-08-11 09:09:00,
2013-08-11 05:17:00,72.0,71.0,30.10,SW,217,0.0,1.0,98,0.00,,,0.34,,2013-08-11 09:17:00,
2013-08-11 05:30:00,72.0,71.0,30.10,SW,224,0.0,1.0,98,0.00,,,0.34,,2013-08-11 09:30:00,
2013-08-11 05:35:00,72.0,71.0,30.10,SW,223,0.0,0.0,98,0.00,,,0.34,,2013-08-11 09:35:00,
2013-08-11 05:44:00,72.0,71.0,30.10,SW,223,0.0,0.0,98,0.00,,,0.34,,2013-08-11 09:44:00,
2013-08-11 06:01:00,72.0,72.0,30.09,SW,221,1.0,2.0,99,0.00,,,0.34,,2013-08-11 10:01:00,
2013-08-11 06:15:00,72.0,71.0,30.10,SSW,211,0.0,1.0,98,0.00,,,0.34,,2013-08-11 10:15:00,
2013-08-11 06:29:00,72.0,71.0,30.10,SW,214,0.0,1.0,98,0.00,,,0.34,,2013-08-11 10:29:00,
2013-08-11 06:36:00,72.0,72.0,30.11,SW,214,0.0,1.0,99,0.00,,,0.34,,2013-08-11 10:36:00,
2013-08-11 06:47:00,72.0,72.0,30.11,SW,214,0.0,1.0,99,0.00,,,0.34,,2013-08-11 10:47:00,
2013-08-11 06:57:00,72.0,72.0,30.11,SW,219,0.0,2.0,99,0.00,,,0.34,,2013-08-11 10:57:00,
2013-08-11 07:06:00,72.0,72.0,30.11,SW,219,0.0,1.0,99,0.00,,,0.34,,2013-08-11 11:06:00,
2013-08-11 07:16:00,72.0,72.0,30.11,SW,219,0.0,1.0,99,0.00,,,0.34,,2013-08-11 11:16:00,
2013-08-11 07:24:00,72.0,72.0,30.11,WSW,242,0.0,2.0,99,0.00,,,0.34,,2013-08-11 11:24:00,
2013-08-11 07:37:00,72.0,72.0,30.11,WSW,246,0.0,1.0,99,0.00,,,0.34,,2013-08-11 11:37:00,
2013-08-11 07:48:00,72.0,72.0,30.11,WSW,246,0.0,1.0,99,0.00,,,0.34,,2013-08-11 11:48:00,
2013-08-11 08:01:00,73.0,72.0,30.11,WNW,287,1.0,2.0,98,0.00,,,0.34,,2013-08-11 12:01:00,
2013-08-11 08:06:00,74.0,73.0,30.11,SSW,200,1.0,3.0,98,0.00,,,0.34,,2013-08-11 12:06:00,
2013-08-11 08:16:00,74.0,73.0,30.11,SSW,200,1.0,3.0,98,0.00,,,0.34,,2013-08-11 12:16:00,
2013-08-11 08:36:00,75.0,73.0,30.11,West,271,0.0,4.0,95,0.00,,,0.34,,2013-08-11 12:36:00,
2013-08-11 08:46:00,75.0,73.0,30.11,West,271,0.0,4.0,95,0.00,,,0.34,,2013-08-11 12:46:00,
2013-08-11 08:56:00,77.0,75.0,30.12,West,263,0.0,3.0,93,0.00,,,0.34,,2013-08-11 12:56:00,
2013-08-11 09:06:00,78.0,75.0,30.12,West,259,2.0,3.0,90,0.00,,,0.34,,2013-08-11 13:06:00,
2013-08-11 09:16:00,78.0,75.0,30.12,West,259,2.0,3.0,90,0.00,,,0.34,,2013-08-11 13:16:00,
2013-08-11 09:27:00,79.0,75.0,30.12,WSW,238,3.0,6.0,87,0.00,,,0.34,,2013-08-11 13:27:00,
2013-08-11 09:39:00,80.0,75.0,30.12,West,274,1.0,5.0,84,0.00,,,0.34,,2013-08-11 13:39:00,
2013-08-11 09:46:00,80.0,75.0,30.12,West,274,1.0,5.0,84,0.00,,,0.34,,2013-08-11 13:46:00,
2013-08-11 09:58:00,81.0,76.0,30.12,WSW,252,2.0,4.0,84,0.00,,,0.34,,2013-08-11 13:58:00,
2013-08-11 10:06:00,81.0,75.0,30.11,SW,226,2.0,5.0,83,0.00,,,0.34,,2013-08-11 14:06:00,
2013-08-11 10:24:00,82.0,75.0,30.11,SW,225,3.0,6.0,80,0.00,,,0.34,,2013-08-11 14:24:00,
2013-08-11 10:35:00,83.0,76.0,30.11,SW,236,3.0,5.0,79,0.00,,,0.34,,2013-08-11 14:35:00,
2013-08-11 10:49:00,83.0,76.0,30.11,SW,236,3.0,5.0,79,0.00,,,0.34,,2013-08-11 14:49:00,
2013-08-11 10:57:00,84.0,76.0,30.12,SW,221,3.0,7.0,76,0.00,,,0.34,,2013-08-11 14:57:00,
2013-08-11 11:08:00,84.0,76.0,30.12,WNW,287,3.0,6.0,76,0.00,,,0.34,,2013-08-11 15:08:00,
2013-08-11 11:16:00,84.0,76.0,30.12,WNW,287,3.0,6.0,76,0.00,,,0.34,,2013-08-11 15:16:00,
2013-08-11 11:24:00,85.0,77.0,30.12,SW,219,1.0,5.0,77,0.00,,,0.34,,2013-08-11 15:24:00,
2013-08-11 11:39:00,86.0,78.0,30.11,WNW,297,1.0,6.0,76,0.00,,,0.34,,2013-08-11 15:39:00,
2013-08-11 11:49:00,86.0,78.0,30.11,WNW,297,1.0,6.0,76,0.00,,,0.34,,2013-08-11 15:49:00,
2013-08-11 12:00:00,86.0,77.0,30.11,SW,215,2.0,6.0,75,0.00,,,0.34,,2013-08-11 16:00:00,
2013-08-11 12:15:00,87.0,78.0,30.11,West,262,1.0,6.0,74,0.00,,,0.34,,2013-08-11 16:15:00,
2013-08-11 12:29:00,87.0,76.0,30.11,SW,221,5.0,9.0,71,0.00,,,0.34,,2013-08-11 16:29:00,
2013-08-11 12:46:00,87.0,77.0,30.10,West,281,3.0,7.0,72,0.00,,,0.34,,2013-08-11 16:46:00,
2013-08-11 12:59:00,88.0,79.0,30.10,ESE,118,1.0,5.0,74,0.00,,,0.34,,2013-08-11 16:59:00,
2013-08-11 13:08:00,88.0,77.0,30.09,North,5,1.0,7.0,71,0.00,,,0.34,,2013-08-11 17:08:00,
2013-08-11 13:14:00,88.0,77.0,30.09,North,5,1.0,7.0,71,0.00,,,0.34,,2013-08-11 17:14:00,
2013-08-11 13:26:00,88.0,78.0,30.09,NW,307,2.0,6.0,72,0.00,,,0.34,,2013-08-11 17:26:00,
2013-08-11 13:37:00,89.0,77.0,30.09,WSW,253,4.0,5.0,68,0.00,,,0.34,,2013-08-11 17:37:00,
2013-08-11 13:45:00,89.0,77.0,30.09,WSW,253,4.0,5.0,68,0.00,,,0.34,,2013-08-11 17:45:00,
2013-08-11 14:06:00,90.0,79.0,30.08,WNW,287,3.0,5.0,71,0.00,,,0.34,,2013-08-11 18:06:00,
2013-08-11 14:19:00,90.0,79.0,30.08,WNW,287,3.0,5.0,71,0.00,,,0.34,,2013-08-11 18:19:00,
2013-08-11 14:29:00,89.0,77.0,30.07,NW,309,2.0,7.0,69,0.00,,,0.34,,2013-08-11 18:29:00,
2013-08-11 14:40:00,90.0,78.0,30.07,West,281,2.0,5.0,68,0.00,,,0.34,,2013-08-11 18:40:00,
2013-08-11 14:47:00,90.0,78.0,30.07,West,281,2.0,5.0,68,0.00,,,0.34,,2013-08-11 18:47:00,
2013-08-11 14:58:00,90.0,77.0,30.06,WSW,253,3.0,6.0,65,0.00,,,0.34,,2013-08-11 18:58:00,
2013-08-11 15:16:00,91.0,78.0,30.05,West,264,2.0,5.0,65,0.00,,,0.34,,2013-08-11 19:16:00,
2013-08-11 15:27:00,92.0,79.0,30.05,WSW,255,2.0,4.0,65,0.00,,,0.34,,2013-08-11 19:27:00,
2013-08-11 15:34:00,92.0,79.0,30.05,WSW,237,3.0,5.0,65,0.00,,,0.34,,2013-08-11 19:34:00,
2013-08-11 15:51:00,92.0,79.0,30.05,WSW,237,3.0,5.0,65,0.00,,,0.34,,2013-08-11 19:51:00,
2013-08-11 16:00:00,91.0,78.0,30.04,WNW,290,1.0,7.0,65,0.00,,,0.34,,2013-08-11 20:00:00,
2013-08-11 16:08:00,92.0,78.0,30.04,WSW,249,2.0,6.0,64,0.00,,,0.34,,2013-08-11 20:08:00,
2013-08-11 16:20:00,92.0,78.0,30.04,WSW,249,2.0,6.0,64,0.00,,,0.34,,2013-08-11 20:20:00,
2013-08-11 16:28:00,92.0,78.0,30.04,SSW,203,4.0,5.0,63,0.00,,,0.34,,2013-08-11 20:28:00,
2013-08-11 16:38:00,92.0,78.0,30.03,WSW,238,4.0,7.0,63,0.00,,,0.34,,2013-08-11 20:38:00,
2013-08-11 16:48:00,92.0,78.0,30.03,WSW,238,4.0,7.0,63,0.00,,,0.34,,2013-08-11 20:48:00,
2013-08-11 16:59:00,92.0,77.0,30.03,West,266,2.0,4.0,62,0.00,,,0.34,,2013-08-11 20:59:00,
2013-08-11 17:08:00,92.0,78.0,30.03,WSW,240,2.0,5.0,63,0.00,,,0.34,,2013-08-11 21:08:00,
2013-08-11 17:14:00,92.0,78.0,30.03,WSW,240,2.0,5.0,63,0.00,,,0.34,,2013-08-11 21:14:00,
2013-08-11 17:27:00,92.0,78.0,30.03,SW,214,1.0,5.0,63,0.00,,,0.34,,2013-08-11 21:27:00,
2013-08-11 17:35:00,92.0,78.0,30.03,WNW,302,4.0,5.0,63,0.00,,,0.34,,2013-08-11 21:35:00,
2013-08-11 17:59:00,92.0,77.0,30.03,NW,318,2.0,6.0,62,0.00,,,0.34,,2013-08-11 21:59:00,
2013-08-11 18:05:00,92.0,78.0,30.03,SW,215,2.0,5.0,63,0.00,,,0.34,,2013-08-11 22:05:00,
2013-08-11 18:17:00,92.0,78.0,30.03,SW,215,2.0,5.0,63,0.00,,,0.34,,2013-08-11 22:17:00,
2013-08-11 18:26:00,92.0,78.0,30.02,WSW,253,3.0,5.0,63,0.00,,,0.04,,2013-08-11 22:26:00,
2013-08-11 18:36:00,92.0,79.0,30.02,WNW,284,1.0,6.0,65,0.00,,,0.04,,2013-08-11 22:36:00,
2013-08-11 18:47:00,92.0,79.0,30.02,WNW,284,1.0,6.0,65,0.00,,,0.04,,2013-08-11 22:47:00,
2013-08-11 18:59:00,91.0,77.0,30.02,WSW,252,0.0,6.0,64,0.00,,,0.04,,2013-08-11 22:59:00,
2013-08-11 19:06:00,91.0,78.0,30.02,West,276,2.0,4.0,65,0.00,,,0.04,,2013-08-11 23:06:00,
2013-08-11 19:18:00,91.0,78.0,30.02,West,276,2.0,4.0,65,0.00,,,0.04,,2013-08-11 23:18:00,
2013-08-11 19:30:00,91.0,78.0,30.02,SW,219,0.0,4.0,66,0.00,,,0.00,,2013-08-11 23:30:00,
2013-08-11 19:48:00,92.0,79.0,30.03,SW,233,0.0,2.0,66,0.00,,,0.00,,2013-08-11 23:48:00,
2013-08-11 19:58:00,89.0,78.0,30.03,West,261,1.0,2.0,70,0.00,,,0.00,,2013-08-11 23:58:00,
2013-08-11 20:07:00,87.0,78.0,30.03,West,266,0.0,3.0,74,0.00,,,0.00,,2013-08-12 00:07:00,
2013-08-11 20:18:00,87.0,78.0,30.03,West,266,0.0,3.0,74,0.00,,,0.00,,2013-08-12 00:18:00,
2013-08-11 20:26:00,85.0,77.0,30.03,West,270,0.0,1.0,76,0.00,,,0.00,,2013-08-12 00:26:00,
2013-08-11 20:37:00,84.0,77.0,30.03,WSW,249,0.0,2.0,79,0.00,,,0.00,,2013-08-12 00:37:00,
2013-08-11 20:50:00,84.0,77.0,30.03,WSW,249,0.0,2.0,79,0.00,,,0.00,,2013-08-12 00:50:00,
2013-08-11 20:59:00,83.0,77.0,30.03,WSW,249,0.0,0.0,81,0.00,,,0.00,,2013-08-12 00:59:00,
2013-08-11 21:08:00,82.0,77.0,30.03,WSW,249,0.0,1.0,84,0.00,,,0.00,,2013-08-12 01:08:00,
2013-08-11 21:14:00,82.0,77.0,30.03,WSW,249,0.0,1.0,84,0.00,,,0.00,,2013-08-12 01:14:00,
2013-08-11 21:26:00,82.0,77.0,30.03,WSW,249,1.0,1.0,86,0.00,,,0.00,,2013-08-12 01:26:00,
2013-08-11 21:38:00,81.0,77.0,30.03,WSW,249,0.0,1.0,89,0.00,,,0.00,,2013-08-12 01:38:00,
2013-08-11 21:57:00,80.0,76.0,30.04,WSW,248,0.0,1.0,88,0.00,,,0.00,,2013-08-12 01:57:00,
2013-08-11 22:08:00,80.0,77.0,30.04,WSW,249,0.0,1.0,90,0.00,,,0.00,,2013-08-12 02:08:00,
2013-08-11 22:16:00,80.0,77.0,30.04,WSW,249,0.0,1.0,90,0.00,,,0.00,,2013-08-12 02:16:00,
2013-08-11 22:25:00,79.0,76.0,30.04,WSW,249,0.0,0.0,91,0.00,,,0.00,,2013-08-12 02:25:00,
2013-08-11 23:00:00,79.0,77.0,30.05,WSW,249,0.0,0.0,94,0.00,,,0.00,,2013-08-12 03:00:00,
2013-08-11 23:08:00,78.0,76.0,30.06,WSW,250,0.0,0.0,94,0.00,,,0.00,,2013-08-12 03:08:00,
2013-08-11 23:25:00,78.0,76.0,30.06,WSW,249,0.0,1.0,95,0.00,,,0.00,,2013-08-12 03:25:00,
2013-08-11 23:39:00,78.0,76.0,30.05,SE,139,1.0,2.0,94,0.00,,,0.00,,2013-08-12 03:39:00,
2013-08-11 23:47:00,78.0,76.0,30.05,SE,139,1.0,2.0,94,0.00,,,0.00,,2013-08-12 03:47:00,